DateTimeUTC,F1_A11,F1_S11,BsB_S11,BsG_S11,BsR_S11,BbsB_S11,BbsG_S11,BbsR_S11,BaB_A11,BaG_A11,BaR_A11,Tu_S11,T_S11,Uu_S11,U_S11,P_S11,T1_A11
2021-10-29T01:00:00Z,00000200,21000000,,,,,,,-000.24,0000.10,0000.22,18.1,25.3,,00.0,0647.1,31.1
2021-10-29T01:01:00Z,00000200,21000000,,,,,,,0000.05,0000.08,0000.11,18.1,25.3,,00.0,0647.1,31.1
2021-10-29T01:02:00Z,00000200,21000000,,,,,,,0000.27,0000.21,-000.13,18.1,25.4,,00.0,0647.1,31.1
2021-10-29T01:03:00Z,00000200,61000000,,,,,,,0000.45,0000.13,0000.36,18.1,25.4,,00.0,0647.1,31.1
2021-10-29T01:04:00Z,00000200,41000000,0000.91,-000.17,-000.09,0000.04,-000.12,0000.07,0000.36,0000.62,0000.49,18.6,25.3,,00.0,0648.0,31.1
2021-10-29T01:05:00Z,00000200,01000000,0000.08,0000.21,-000.13,-000.15,0000.28,0000.05,0000.06,-000.07,0000.03,18.7,25.3,,00.0,0648.1,31.1
2021-10-29T01:06:00Z,00000200,01000000,0000.46,-000.08,-000.02,-000.30,0000.45,0000.17,0000.33,0000.52,0000.33,18.7,25.3,,00.0,0648.1,31.1
2021-10-29T01:07:00Z,00000200,01000000,-000.32,-000.12,0000.04,0000.04,0000.23,0000.07,0000.18,-000.02,-000.12,18.8,25.3,,00.0,0648.1,31.1
2021-10-29T01:08:00Z,00000200,01000000,0000.71,0000.19,0000.39,-000.39,0000.04,0000.31,0000.19,0000.35,0000.06,18.7,25.3,,00.0,0648.1,31.1
2021-10-29T01:09:00Z,00000200,01000000,0000.12,0000.22,-000.07,-000.11,0000.09,0000.11,0000.29,0000.13,0000.17,18.6,25.3,,00.0,0648.0,31.1
2021-10-29T01:10:00Z,00000200,01000000,0001.92,-000.07,0000.11,-000.39,0000.16,-000.19,0000.34,-000.07,0000.26,18.6,25.3,,00.0,0648.0,31.1
2021-10-29T01:11:00Z,00000200,01000000,0000.54,0000.37,0000.47,-000.02,0000.09,0000.17,-000.06,0000.37,0000.08,18.5,25.2,,00.0,0648.0,31.1
2021-10-29T01:12:00Z,00000200,01000000,0000.96,0000.18,-000.31,-000.53,0000.15,-000.01,0000.44,-000.25,0000.01,18.5,25.2,,00.0,0648.0,31.1
2021-10-29T01:13:00Z,00000200,01000000,-000.26,0000.39,0000.09,0000.15,0000.00,0000.18,0000.23,0000.61,0000.37,18.5,25.2,,00.0,0648.0,31.1
2021-10-29T01:14:00Z,00000200,01000000,0000.02,-000.24,0000.35,0000.29,0000.12,0000.36,-000.41,0000.12,-000.02,18.5,25.2,,00.0,0648.0,31.1
2021-10-29T01:15:00Z,00000200,01000000,0000.67,0000.08,0000.08,0000.26,0000.00,0000.17,0000.76,0000.09,0000.38,18.6,25.2,,00.0,0648.0,31.1
2021-10-29T01:16:00Z,00000200,01000000,0000.03,0000.18,0000.16,0000.35,0000.18,0000.10,0000.10,0000.39,-000.24,18.6,25.2,,00.0,0648.0,31.1
2021-10-29T01:17:00Z,00000200,01000000,0000.50,0000.35,-000.07,0000.29,-000.39,0000.33,0000.07,-000.05,0000.48,18.7,25.2,,00.0,0647.9,31.1
2021-10-29T01:18:00Z,00000200,01000000,0000.02,-000.18,0000.01,-000.41,-000.19,-000.15,0000.22,0000.52,0000.21,18.8,25.3,,00.0,0647.9,31.1
2021-10-29T01:19:00Z,00000200,01000000,0000.57,-000.15,0000.36,-000.14,-000.05,0000.11,0000.15,-000.03,0000.08,18.8,25.3,,00.0,0647.9,31.1
2021-10-29T01:20:00Z,00000200,01000000,0000.05,0000.06,0000.12,-000.36,0000.18,0000.29,0000.13,0000.13,0000.12,18.8,25.3,,00.0,0647.9,31.1
2021-10-29T01:21:00Z,00000200,01000000,-000.23,-000.03,0000.14,-000.24,0000.43,0000.05,0000.08,0000.25,0000.16,18.8,25.3,,00.0,0647.9,31.1
2021-10-29T01:22:00Z,00000200,01000000,0000.65,0000.22,0000.12,0000.48,0000.12,0000.19,-000.09,-000.64,-000.29,18.7,25.3,,00.0,0647.9,31.1
2021-10-29T01:23:00Z,00000200,01000000,0000.68,0000.05,0000.10,0000.53,-000.09,-000.03,-000.16,0000.16,-000.14,18.6,25.2,,00.0,0647.9,31.1
2021-10-29T01:24:00Z,00000200,01000000,-000.12,-000.17,-000.14,0000.26,0000.09,-000.10,-000.31,-000.27,-000.18,18.5,25.2,,00.0,0647.9,31.1
2021-10-29T01:25:00Z,00000200,01000000,0001.18,0000.27,-000.05,0000.87,0000.42,0000.12,0000.60,0000.27,0000.19,18.4,25.1,,00.0,0647.8,31.0
2021-10-29T01:26:00Z,00000200,01000000,-000.16,-000.15,0000.28,-000.06,0000.42,0000.22,0000.54,0000.26,0000.16,18.3,25.1,,00.0,0647.8,31.0
2021-10-29T01:27:00Z,00000200,01000000,-000.39,-000.13,0000.09,-000.19,0000.14,0000.27,-000.04,0000.50,0000.42,18.3,25.1,,00.0,0647.8,31.0
2021-10-29T01:28:00Z,00000200,01000000,-000.29,-000.19,-000.18,0000.27,0000.33,0000.28,0000.24,-000.08,0000.14,18.4,25.1,,00.0,0647.7,31.1
2021-10-29T01:29:00Z,00000200,01000000,0000.26,-000.11,-000.22,0000.67,-000.08,0000.45,0000.65,0000.59,0000.36,18.4,25.1,,00.0,0647.7,31.1
2021-10-29T01:30:00Z,00000200,01000000,0000.38,-000.05,0000.10,0000.58,0000.05,0000.19,0000.02,0000.38,0000.23,18.4,25.1,,00.0,0647.7,31.1
2021-10-29T01:31:00Z,00000200,01000000,-000.01,-000.21,-000.11,0000.41,0000.07,-000.05,0000.51,0000.61,0000.46,18.5,25.1,,00.0,0647.7,31.1
2021-10-29T01:32:00Z,00000200,01000000,-000.07,-000.13,-000.09,0000.24,0000.12,0000.32,0000.40,-000.02,-000.21,18.6,25.2,,00.0,0647.7,31.1
2021-10-29T01:33:00Z,00000200,01000000,0000.06,0000.04,0000.30,0000.30,0000.38,0000.11,-000.14,0000.07,0000.66,18.6,25.2,,00.0,0647.7,31.1
2021-10-29T01:34:00Z,00000200,01000000,-000.28,0000.01,-000.07,0000.46,0000.04,0000.18,0000.86,0000.63,-000.05,18.7,25.2,,00.0,0647.7,31.1
2021-10-29T01:35:00Z,00000200,01000000,0000.18,-000.12,0000.01,-000.20,0000.21,0000.15,-000.03,0000.27,0000.57,18.8,25.2,,00.0,0647.6,31.1
2021-10-29T01:36:00Z,00000200,01000000,-000.15,0000.03,-000.22,-000.52,0000.12,0000.24,0000.43,0000.19,0000.08,18.8,25.2,,00.0,0647.6,31.1
2021-10-29T01:37:00Z,00000200,01000000,-000.03,0000.14,-000.10,0000.20,-000.05,-000.02,0000.07,0000.33,0000.37,18.8,25.3,,00.0,0647.7,31.1
2021-10-29T01:38:00Z,00000200,01000000,0000.04,-000.23,0000.17,0000.16,0000.23,0000.26,0000.30,0000.21,-000.18,18.8,25.3,,00.0,0647.6,31.1
2021-10-29T01:39:00Z,00000200,01000000,-000.56,-000.12,-000.22,0000.72,-000.06,0000.20,-000.00,-000.16,0000.15,18.7,25.3,,00.0,0647.6,31.1
2021-10-29T01:40:00Z,00000200,01000000,0000.05,-000.23,0000.10,-000.24,0000.08,0000.20,0000.42,0000.52,0000.06,18.6,25.2,,00.0,0647.6,31.1
2021-10-29T01:41:00Z,00000200,01000000,-000.07,-000.01,0000.14,-000.03,-000.04,0000.17,0000.04,0000.04,0000.02,18.6,25.2,,00.0,0647.6,31.1
2021-10-29T01:42:00Z,00000200,01000000,-000.09,-000.09,-000.21,-000.03,0000.12,0000.24,0000.14,0000.08,0000.28,18.5,25.1,,00.0,0647.6,31.1
2021-10-29T01:43:00Z,00000200,01000000,-000.70,-000.44,0000.31,0000.42,0000.23,-000.06,0000.10,0000.01,-000.03,18.6,25.1,,00.0,0647.6,31.1
2021-10-29T01:44:00Z,00000200,01000000,0000.33,-000.07,-000.10,0000.58,0000.07,-000.28,-000.03,0000.29,0000.26,18.6,25.2,,00.0,0647.6,31.1
2021-10-29T01:45:00Z,00000200,01000000,0000.04,0000.03,0000.11,-000.26,0000.30,0000.09,0000.09,-000.16,0000.39,18.7,25.2,,00.0,0647.6,31.1
2021-10-29T01:46:00Z,00000200,01000000,0000.22,0000.08,-000.14,-000.20,0000.05,0000.03,0000.14,-000.15,-000.27,18.7,25.2,,00.0,0647.6,31.1
2021-10-29T01:47:00Z,00000200,01000000,0000.04,0000.22,0000.14,0000.51,0000.06,0000.43,-000.02,0000.22,-000.11,18.8,25.2,,00.0,0647.6,31.1
2021-10-29T01:48:00Z,00000200,01000000,-000.66,0000.20,0000.05,0000.64,0000.01,0000.20,0000.30,0000.05,0000.12,18.8,25.3,,00.0,0647.6,31.1
2021-10-29T01:49:00Z,00000200,01000000,0000.60,0000.02,0000.17,-000.10,0000.16,0000.26,-000.20,0000.09,-000.10,18.8,25.3,,00.0,0647.6,31.1
2021-10-29T01:50:00Z,00000200,01000000,0000.00,-000.10,-000.02,-000.01,0000.26,0000.30,0000.10,-000.13,0000.05,18.9,25.3,,00.0,0647.6,31.1
2021-10-29T01:51:00Z,00000200,01000000,-000.12,-000.09,-000.08,0000.02,0000.05,-000.09,-000.37,-000.13,-000.32,18.9,25.3,,00.0,0647.6,31.1
2021-10-29T01:52:00Z,00000200,01000000,0000.06,0000.01,-000.05,0000.14,0000.37,0000.43,0000.18,0000.16,0000.04,18.8,25.3,,00.0,0647.5,31.1
2021-10-29T01:53:00Z,00000200,01000000,0000.58,-000.35,0000.30,-000.17,-000.06,0000.40,-000.38,-000.02,0000.18,18.7,25.3,,00.0,0647.5,31.1
2021-10-29T01:54:00Z,00000200,01000000,0000.60,0000.32,-000.02,0000.21,0000.03,0000.05,0000.40,-000.38,-000.02,18.6,25.2,,00.0,0647.5,31.0
2021-10-29T01:55:00Z,00000200,01000000,0000.37,-000.22,-000.03,-000.14,0000.16,0000.11,-000.13,0000.38,-000.29,18.5,25.2,,00.0,0647.5,31.0
2021-10-29T01:56:00Z,00000200,01000000,0000.75,-000.30,0000.24,0000.28,0000.38,0000.12,0000.55,-000.28,0000.46,18.4,25.1,,00.0,0647.4,31.0
2021-10-29T01:57:00Z,00000200,41000000,,,,,,,-000.72,0000.00,-000.54,18.5,25.1,,00.0,0647.4,31.0
2021-10-29T01:58:00Z,00000200,61000000,,,,,,,0000.34,0000.03,0000.43,18.2,25.3,,00.0,0646.5,31.1
2021-10-29T01:59:00Z,00000200,21000000,,,,,,,0000.18,0000.22,-000.23,18.2,25.4,,00.0,0646.5,31.1
